Theta_e
331 328 322 319 321 319 325 328 326 329 331 329 330 329 329 332 334 336 336 335 336 335 335 335 337 337 336 333 334 334 334 335 335 333 332 332 331 331 329 329 329 329 330 329 329 329 330 328 326
331 326 320 313 321 325 324 323 328 327 332 331 332 333 334 339 335 335 336 336 335 335 335 335 336 335 334 333 333 333 334 335 334 332 331 330 329 329 329 328 328 329 330 328 329 328 328 328 326
329 322 316 318 319 324 326 324 325 329 330 330 335 331 334 337 335 335 336 336 336 335 333 334 334 334 334 334 334 333 332 333 333 332 331 329 329 328 327 328 328 328 328 328 328 328 327 326 325
325 319 315 320 324 322 323 324 327 329 326 330 332 336 332 333 335 336 335 336 336 332 332 333 334 334 335 334 333 334 331 330 331 333 331 329 329 328 327 327 327 327 327 327 328 328 327 326 323
323 316 319 322 322 321 320 324 325 327 327 331 330 335 335 333 334 336 335 335 333 332 330 332 334 334 334 331 331 331 330 328 330 331 331 329 328 327 326 327 326 327 327 327 328 328 326 323 321
326 317 322 323 323 322 323 324 325 326 327 331 332 333 333 335 336 335 334 333 332 329 326 331 333 333 332 331 331 330 330 328 327 329 329 329 328 327 326 326 326 326 327 327 326 323 323 321 320
328 327 323 323 324 324 323 322 324 324 329 331 329 334 331 335 335 334 334 333 331 326 324 327 332 332 330 329 328 328 329 327 325 327 327 325 324 326 325 325 325 325 325 323 322 321 321 321 320
322 328 330 326 324 326 319 323 321 324 325 327 327 331 334 333 335 335 334 333 330 326 327 327 328 329 328 327 327 329 328 326 325 324 326 324 323 325 325 325 322 319 319 320 320 320 321 321 321
318 330 332 328 325 324 315 321 320 322 328 329 330 326 327 334 335 334 334 332 329 328 329 328 328 328 327 327 326 327 326 326 325 324 324 324 323 320 321 320 318 317 317 319 320 321 321 321 321
326 328 330 325 321 317 315 318 322 326 329 330 331 329 329 334 333 331 331 330 331 331 330 329 327 327 327 326 326 325 324 325 325 325 324 323 320 317 318 318 318 317 317 319 320 321 321 321 321
328 331 326 326 317 314 315 317 312 324 328 324 329 329 330 333 331 331 330 330 329 328 329 331 328 326 326 326 325 324 323 322 324 324 323 321 319 316 316 317 318 317 317 319 320 321 321 321 321
332 330 328 322 319 316 315 312 315 322 323 318 322 327 331 331 332 332 330 330 329 328 329 332 330 326 325 325 324 324 324 322 323 323 323 321 319 317 315 316 317 318 319 320 320 320 321 321 321
329 329 329 329 327 326 317 315 314 313 313 323 325 328 330 331 331 332 331 331 329 328 328 330 331 327 325 325 324 324 325 323 321 319 319 319 319 316 314 315 317 317 318 319 320 319 320 321 321
325 328 327 328 328 324 323 321 321 315 324 328 328 328 328 329 331 331 332 332 329 329 328 327 330 329 326 325 325 325 324 323 320 319 320 322 321 317 315 315 315 316 318 319 320 320 320 321 321
325 329 325 325 328 330 318 328 318 321 323 326 328 327 327 328 330 330 332 332 331 330 330 328 328 329 328 326 325 325 324 324 321 320 322 323 323 323 316 316 316 316 319 319 320 321 322 322 322
327 326 329 325 326 328 325 335 329 320 321 322 326 326 326 326 328 330 331 332 332 331 330 330 328 327 328 327 325 324 323 323 321 319 322 323 323 323 321 320 320 320 320 320 321 321 322 322 322
325 325 326 326 324 325 327 333 330 321 319 319 321 325 326 327 327 329 331 331 332 332 331 331 330 328 327 327 327 325 324 322 320 320 321 322 324 324 321 320 321 321 321 322 322 322 323 322 322
324 327 325 326 324 321 321 331 329 320 319 320 319 323 325 326 327 328 330 331 331 331 332 331 331 330 329 328 328 327 325 323 321 322 324 324 325 325 324 322 322 322 321 322 323 323 322 322 322
319 322 323 324 322 321 323 325 325 324 313 313 316 318 323 325 326 327 329 330 331 330 331 331 331 331 329 328 328 327 326 323 322 321 322 323 324 325 325 323 323 323 322 322 324 324 323 322 322
321 324 324 323 321 320 323 322 321 319 316 315 315 312 316 323 323 324 327 329 329 330 330 330 331 331 330 328 328 327 326 325 324 324 324 324 323 323 324 324 323 323 323 323 324 324 323 322 322
326 325 323 324 318 318 319 323 321 317 318 318 315 316 314 314 322 323 324 327 328 328 329 329 330 331 332 331 328 326 325 325 325 325 325 325 324 324 323 323 322 323 324 324 324 324 324 322 322
327 322 322 324 323 327 320 328 322 320 320 317 319 316 315 310 315 319 324 325 327 327 328 329 329 329 329 330 328 327 326 325 325 325 326 324 324 324 323 323 323 323 324 324 324 324 324 324 322
326 321 323 324 324 322 323 325 322 320 322 322 318 317 316 313 311 315 321 325 326 327 327 327 328 328 329 329 329 327 326 326 326 327 326 326 326 324 324 323 323 323 324 324 325 324 323 324 324
321 323 323 323 325 326 321 324 323 322 323 322 320 317 315 315 311 310 315 323 325 327 327 326 327 329 328 329 329 328 328 327 327 327 327 327 326 326 326 325 324 323 323 324 324 325 324 324 324
323 324 327 328 330 324 317 322 322 320 318 318 319 317 315 314 311 309 307 316 323 326 327 326 326 325 326 328 329 329 329 328 328 327 327 326 325 325 324 325 325 324 324 323 323 324 325 324 324
325 323 324 325 323 319 318 325 322 319 319 319 314 313 311 311 312 311 307 312 318 323 326 327 325 325 326 326 327 328 328 328 328 327 326 325 325 325 324 323 323 323 323 323 323 323 324 323 323
324 326 318 316 299 314 319 317 314 314 315 312 311 312 313 311 308 311 309 309 314 321 324 326 326 325 325 325 326 326 327 327 327 326 326 326 325 324 323 323 323 323 322 323 323 323 323 322 323
322 321 325 320 317 320 319 318 323 318 320 317 315 312 313 312 307 305 307 308 310 317 321 324 326 325 325 326 326 326 326 326 326 326 326 326 325 324 323 323 323 323 323 323 323 323 323 323 323
322 323 322 319 315 319 320 318 311 318 319 319 318 315 314 312 308 305 302 306 310 311 319 323 325 325 324 324 325 325 325 326 326 326 326 326 325 324 324 323 323 323 324 325 324 325 325 324 324
320 321 321 323 321 315 315 319 311 311 313 309 313 310 308 307 305 302 300 302 305 308 312 320 324 325 326 325 324 324 324 325 325 325 325 325 324 324 323 323 323 324 324 325 325 325 325 325 324
Wind_Speed
17 20 12 4 4 5 2 3 1 4 2 1 3 3 5 3 3 3 4 7 18 19 15 14 14 15 14 15 14 15 15 16 17 16 17 17 17 18 17 17 16 17 17 16 17 18 17 17 18
18 14 5 2 4 3 4 3 4 4 5 6 5 2 4 1 2 5 12 14 21 19 16 16 15 15 15 15 14 15 14 15 16 16 17 17 17 17 16 16 16 17 16 16 15 17 17 17 18
13 8 3 4 3 3 4 3 4 3 6 2 4 4 2 3 1 13 6 22 21 18 17 16 16 16 16 15 15 15 15 14 15 17 17 17 16 17 16 15 15 16 16 15 16 17 17 18 19
12 7 3 3 2 3 3 2 4 6 1 4 3 5 1 2 11 8 20 22 20 17 17 16 16 17 17 17 16 16 16 13 14 17 16 15 16 15 16 15 16 16 16 16 16 16 16 17 18
9 3 3 2 3 4 3 3 7 5 3 3 2 4 2 1 3 14 25 22 20 18 17 17 15 17 18 17 14 15 15 14 16 15 16 16 15 14 14 15 15 15 15 15 15 15 15 16 16
4 2 3 1 4 5 2 4 5 3 3 4 4 5 3 4 14 22 24 22 18 18 18 19 17 16 15 14 13 14 16 15 13 14 14 13 13 14 13 14 13 14 15 15 14 14 14 14 14
4 4 2 2 3 5 1 6 3 4 4 3 8 5 1 8 17 25 23 21 18 16 18 19 19 16 14 14 14 15 15 16 14 13 12 10 12 14 13 12 12 13 14 14 14 13 12 11 10
4 3 5 2 1 4 5 3 2 5 4 3 4 4 4 11 23 23 23 22 19 18 17 18 18 17 16 16 15 17 16 16 14 13 12 9 12 13 13 12 12 13 14 14 13 11 10 9 7
4 3 4 5 3 3 3 1 2 1 5 2 3 4 3 23 26 23 24 21 21 20 19 19 18 18 17 18 17 16 15 15 14 12 12 11 10 11 12 13 12 12 13 13 12 9 7 6 6
1 5 9 5 1 3 4 0 3 3 3 3 3 1 8 28 26 22 20 19 20 21 21 20 19 19 19 18 18 18 15 14 14 14 12 12 11 11 12 12 13 13 13 12 10 8 5 4 4
1 4 3 3 2 2 3 2 3 4 4 7 8 7 15 18 21 20 20 26 27 24 22 23 21 20 21 20 18 16 18 17 18 15 13 13 13 13 12 12 12 12 12 10 7 4 4 4 3
5 6 4 3 2 1 3 2 2 6 5 3 8 9 18 18 20 23 22 24 28 28 24 25 24 23 22 21 19 19 18 16 17 16 14 14 13 12 11 10 10 10 10 8 5 5 5 4 3
3 4 4 5 4 4 3 3 4 6 7 3 5 11 15 17 22 21 21 26 30 29 27 27 26 25 23 22 21 21 20 18 16 16 16 14 13 12 11 10 10 9 9 7 5 5 5 5 4
6 4 1 2 3 3 2 3 2 3 3 3 6 10 11 15 21 18 23 24 29 31 30 27 29 27 25 23 22 22 21 19 18 18 17 15 13 13 13 12 12 12 10 8 6 6 6 6 6
3 1 3 4 2 5 5 12 10 9 4 4 7 7 7 12 18 26 28 28 33 33 31 30 29 29 28 26 24 23 22 21 20 20 18 16 16 14 13 13 13 12 11 10 9 9 9 8 8
4 2 1 3 6 6 7 17 16 8 8 10 9 8 8 11 22 23 28 31 32 32 33 31 30 31 30 28 27 26 24 23 23 22 21 19 18 17 16 15 14 12 12 11 11 11 11 10 10
4 4 4 6 8 2 8 8 16 8 9 10 8 9 10 11 14 24 31 34 34 34 34 34 33 33 32 30 27 26 26 26 25 25 24 22 20 19 18 17 16 14 14 14 13 13 13 12 12
6 5 4 6 4 4 3 17 12 1 8 12 9 9 11 12 17 26 30 35 35 34 34 35 35 35 32 31 29 26 27 28 28 28 26 25 23 21 19 20 19 17 17 17 16 16 15 14 12
6 5 9 3 6 5 10 16 15 13 4 8 10 9 12 13 20 20 27 32 32 33 35 36 37 36 35 34 33 31 32 32 32 31 29 27 25 24 23 23 22 21 21 20 19 18 17 17 13
3 4 4 3 2 5 6 14 12 9 8 12 16 11 14 11 9 15 26 31 35 38 39 38 38 39 39 38 37 33 33 34 33 32 31 29 27 27 27 26 26 26 25 24 22 22 21 20 17
13 15 4 3 3 3 6 14 13 9 15 15 11 16 14 16 16 13 19 29 34 37 39 41 43 41 41 40 36 33 28 28 30 34 34 34 31 30 29 29 29 29 28 28 27 26 25 24 21
21 6 6 5 1 4 5 7 6 6 16 9 19 17 19 14 15 14 18 23 30 35 37 44 41 42 42 40 37 37 31 28 32 34 35 35 33 34 33 33 32 32 32 33 32 30 30 28 25
11 10 6 1 2 3 4 5 7 2 8 12 16 17 15 17 18 18 18 29 35 38 41 41 41 40 42 43 40 38 34 30 30 31 32 32 33 35 36 35 36 35 36 36 35 34 34 34 32
8 6 4 2 1 9 16 11 9 9 12 10 6 11 15 15 15 16 25 27 29 32 35 37 40 46 42 42 42 37 34 32 28 32 33 34 35 37 38 37 37 38 38 39 40 38 37 38 37
17 10 3 6 6 12 4 10 19 7 9 8 10 11 10 10 10 14 14 19 26 30 36 37 38 35 38 42 42 45 42 34 34 35 38 36 38 39 40 38 38 39 40 40 40 40 40 39 38
27 15 5 8 6 8 5 10 6 12 19 18 11 10 7 8 8 10 14 23 27 30 35 35 36 37 40 44 44 44 40 40 42 37 35 36 37 38 36 35 34 36 36 38 38 39 39 37 38
12 11 11 5 2 2 5 9 7 11 14 10 10 8 12 10 8 10 9 19 24 28 34 38 39 42 38 41 43 40 42 42 40 39 37 38 38 36 33 30 29 28 30 32 34 36 37 36 39
12 16 11 3 4 5 6 7 12 4 20 12 12 13 16 9 9 8 7 17 25 29 33 36 39 41 42 43 41 40 41 40 41 34 37 37 37 34 32 30 30 29 29 30 31 34 35 35 36
8 12 7 6 5 5 8 11 8 17 18 16 19 15 14 10 11 8 7 12 21 25 27 32 34 34 35 38 38 38 38 39 38 38 38 37 36 34 32 31 29 29 29 31 32 34 34 34 36
23 8 18 9 13 5 0 14 1 9 8 5 10 7 7 8 8 7 8 10 11 20 26 31 32 33 35 36 35 37 37 36 35 36 36 35 34 32 31 30 30 31 31 31 31 32 31 32 33
Wind_Direction
341 345 343 22 49 63 293 259 178 128 127 313 83 136 161 83 155 204 135 161 156 155 151 153 148 141 140 132 133 129 126 120 114 108 104 104 101 99 98 96 98 99 101 94 88 91 90 85 81
343 350 30 69 84 67 271 259 198 167 145 125 76 50 55 132 136 122 136 150 157 152 156 158 157 150 145 141 140 135 127 124 121 113 107 106 101 101 100 100 100 102 100 93 91 94 89 87 87
345 1 68 83 105 174 221 218 165 102 144 79 101 62 121 146 188 152 153 154 157 156 158 158 161 155 151 150 147 140 134 128 123 118 111 109 107 106 101 100 100 101 101 94 95 94 90 91 90
348 12 49 82 221 241 211 196 142 123 220 77 125 75 11 258 158 176 156 158 158 159 162 161 164 162 156 150 144 144 139 137 131 129 119 114 112 110 107 103 100 105 107 99 96 97 94 94 91
7 52 48 13 282 276 258 176 148 155 141 114 166 178 98 250 198 159 159 164 165 161 165 167 168 163 157 152 154 154 151 145 140 140 126 119 116 114 111 107 105 111 111 106 102 104 97 95 92
3 60 36 244 273 288 314 158 143 133 152 142 93 129 161 179 167 163 165 166 171 164 166 170 170 169 168 165 168 168 158 152 149 140 134 125 124 120 115 109 109 113 115 109 105 104 103 98 92
97 354 256 255 279 306 104 150 161 169 154 217 147 129 245 180 172 167 171 168 170 170 166 170 175 177 177 173 169 165 159 155 154 156 145 134 134 125 120 114 116 114 118 118 113 107 104 100 94
98 73 304 271 247 274 339 197 89 164 195 132 158 185 207 199 173 172 173 169 173 173 171 166 170 175 173 167 167 160 160 154 148 160 165 147 137 132 129 133 129 129 131 130 127 117 105 102 110
122 140 225 215 207 255 342 314 95 72 111 229 190 168 258 174 172 167 167 169 172 177 178 173 173 175 175 171 171 174 168 176 162 168 175 180 164 153 144 141 135 135 138 138 131 123 119 113 121
143 177 217 216 178 238 311 9 169 148 126 251 246 188 151 163 169 164 165 170 175 180 187 184 181 180 180 177 177 179 186 189 184 176 176 179 172 164 158 149 148 149 150 149 145 139 135 132 132
125 209 189 245 219 145 263 134 322 134 226 219 206 169 158 168 177 179 177 174 181 186 189 192 189 189 186 183 182 186 182 184 192 192 187 182 177 172 169 166 164 161 159 159 158 157 158 162 160
144 251 222 158 152 196 245 279 2 188 230 322 236 162 166 178 186 190 186 184 188 186 190 195 195 194 193 192 190 186 188 189 192 201 202 197 190 186 182 177 174 175 177 178 185 181 168 176 184
162 216 228 233 263 268 265 243 217 247 267 339 137 155 179 183 192 198 196 192 195 191 193 197 197 198 198 198 197 194 194 197 197 201 203 201 199 197 195 191 190 189 191 202 205 199 195 195 198
198 214 326 305 266 260 236 238 285 233 108 72 169 187 190 192 190 191 196 195 198 197 199 199 200 201 202 202 203 200 200 200 205 205 206 206 205 206 207 205 202 203 209 221 225 222 216 214 214
127 254 347 235 213 237 180 265 213 225 134 198 218 219 210 209 198 200 197 199 203 203 203 203 203 206 206 207 208 208 208 209 212 211 213 219 220 219 218 214 213 213 221 219 220 220 225 224 222
121 103 220 262 168 249 189 255 253 192 176 228 216 216 220 220 218 213 208 209 210 206 206 206 206 208 211 211 211 213 214 217 219 217 218 222 225 227 229 230 230 228 225 230 229 231 235 237 235
224 197 190 305 199 191 191 262 258 195 194 237 218 213 215 229 224 226 216 217 216 213 210 210 209 211 212 214 216 218 219 220 223 225 228 229 229 228 232 238 241 238 236 236 236 238 239 244 245
196 187 183 205 238 219 231 250 269 288 195 224 222 217 220 223 225 221 222 219 221 220 216 215 213 215 215 217 219 222 225 227 228 229 232 236 239 237 237 241 243 240 239 238 239 240 241 245 242
163 183 199 195 218 186 221 243 245 247 219 245 246 232 225 223 233 224 223 221 219 223 220 217 215 217 215 215 218 221 225 225 228 230 234 237 237 239 241 242 245 244 243 243 243 243 242 237 233
180 200 222 293 197 191 277 264 246 246 239 225 226 236 231 230 223 210 215 218 217 221 221 219 219 219 217 220 221 219 225 229 233 234 236 238 239 239 239 242 244 245 244 242 241 241 241 240 229
224 220 191 230 7 255 334 273 258 243 243 241 235 233 232 221 222 216 204 210 214 215 217 220 222 220 221 221 221 222 225 232 235 237 238 237 239 241 241 242 244 245 245 246 244 242 240 240 236
227 153 167 211 244 255 168 285 259 236 242 225 231 226 231 215 219 220 206 209 212 219 217 225 222 221 224 224 217 216 214 217 228 236 240 241 240 241 242 242 244 246 247 248 249 249 246 243 240
227 170 180 149 269 321 243 280 273 252 243 240 229 229 229 224 215 217 203 207 212 218 219 219 219 220 222 222 217 216 217 224 230 235 240 243 244 244 245 245 244 245 247 250 252 251 248 247 245
153 106 98 98 24 270 246 232 231 227 222 254 221 228 221 223 215 217 213 207 211 214 215 215 213 222 218 218 219 215 218 220 224 230 235 244 248 249 248 247 247 249 249 250 252 253 253 252 251
183 160 175 211 197 240 190 206 245 246 251 233 229 241 231 217 207 210 201 197 206 203 211 210 212 212 214 218 218 221 222 220 223 228 235 236 243 248 252 249 248 249 252 253 254 255 256 255 253
190 176 163 189 189 257 128 238 247 232 248 243 226 239 246 216 218 215 204 206 208 204 205 204 207 212 215 217 219 223 222 223 228 230 231 239 243 252 256 255 254 255 255 256 256 257 259 257 259
191 202 183 112 40 53 209 276 285 263 263 257 247 245 245 231 213 225 216 210 210 205 204 204 208 215 211 214 220 219 225 226 228 232 238 243 249 253 256 258 260 260 260 259 258 258 258 256 260
187 187 188 145 175 243 243 258 236 255 244 245 243 232 242 219 209 223 221 217 216 214 213 211 211 214 215 220 219 222 225 228 233 234 242 246 251 253 254 257 259 261 261 261 258 257 259 255 257
178 187 200 177 164 200 255 255 200 213 235 228 240 237 231 210 211 209 214 228 230 225 217 212 211 212 215 220 223 223 227 233 234 237 244 248 251 252 254 257 260 262 264 265 261 261 260 256 260
205 191 191 201 211 223 109 261 248 244 275 321 283 268 243 227 209 203 200 206 210 215 217 215 213 215 224 225 224 228 231 234 235 238 244 248 251 255 258 259 260 262 264 265 264 265 262 260 257